[[{"header":{"parameterUnit":"m.s-1","parameterCategory":2,"la1":30.2991,"la2":30.254,"lo1":-89.0895,"lo2":-89.0444,"dy":0.0017,"dx":0.0017,"nx":28,"ny":28,"refTime":"2023-11-02T09:00:00:Z","depth":"0","parameterNumber":2,"parameterNumberName":"U-component_of_CURRENTS"},"data":[0,0,0,0,0,0,0,0,0,0,0,0,0,0,0,0,0,0,0,0,0,0,0,0,0,0,0,0,0,0,0,0,0,0,0,0,0,0,0,0,0,0,0,0,0,0,0,0,0,0,0,0,0,0,0,0,0,0,-0.2877,-0.2878,0,-0.2898,-0.2897,-0.2897,-0.2865,-0.2864,-0.2863,-0.2862,-0.2842,-0.2842,-0.2842,0,0,0,0,0,0,0,0,0,0,0,0,0,-0.2797,-0.2798,-0.2877,-0.2878,-0.2878,-0.2898,-0.2897,-0.2897,-0.2865,-0.2864,-0.2863,-0.2862,-0.2842,-0.2842,-0.2842,0,0,0,0,0,0,0,0,0,0,0,0,0,-0.2823,-0.2799,-0.2877,-0.2867,-0.2867,-0.2898,-0.2897,-0.2897,-0.2865,-0.2864,-0.2863,-0.2862,-0.2842,-0.2842,-0.2842,-0.2868,0,0,-0.2843,-0.2843,0,0,0,0,0,0,0,0,-0.2821,-0.2825,-0.2868,-0.2868,-0.2867,-0.2881,-0.2862,-0.2887,-0.2865,-0.2862,-0.2862,-0.2861,-0.2854,-0.2854,-0.2855,-0.2867,-0.2866,-0.2843,-0.2843,-0.2843,-0.2843,0,0,0,0,0,0,0,-0.2819,-0.2824,-0.2881,-0.2869,-0.2868,-0.2858,-0.286,-0.2866,-0.2861,-0.2862,-0.286,-0.2869,-0.2853,-0.2855,-0.2854,-0.2865,-0.2843,-0.2843,-0.2844,-0.2844,-0.2878,-0.2879,0,0,0,0,0,0,-0.2827,-0.2823,-0.2881,-0.2882,-0.2845,-0.286,-0.2862,-0.2874,-0.2861,-0.286,-0.287,-0.2868,-0.2855,-0.2854,-0.2854,-0.288,-0.2843,-0.2844,-0.2844,-0.2877,-0.2878,-0.2879,0,0,0,0,0,0,-0.2825,-0.2832,-0.288,-0.2855,-0.2861,-0.2863,-0.2877,-0.2876,-0.2875,-0.2869,-0.2865,-0.2871,-0.2854,-0.2853,-0.2859,-0.2879,-0.2844,-0.2844,-0.2876,-0.2877,-0.2878,-0.2934,0,0,0,0,0,0,-0.2823,-0.2831,-0.2839,-0.2856,-0.2863,-0.2904,-0.2879,-0.2877,-0.2884,-0.2881,-0.2869,-0.2866,-0.2853,-0.2858,-0.2859,-0.2878,-0.2844,-0.2875,-0.2877,-0.2878,-0.2931,-0.2937,-0.2942,0,0,0,0,0,-0.282,-0.2838,-0.2839,-0.2846,-0.2875,-0.2906,-0.2908,-0.2902,-0.2885,-0.2894,-0.2881,-0.2866,-0.2867,-0.286,-0.286,-0.288,-0.2875,-0.2876,-0.2878,-0.2929,-0.2936,-0.2941,0,0,0,0,0,0,-0.2805,-0.2838,-0.2838,-0.2865,-0.2886,-0.2901,-0.2908,-0.2907,-0.2904,-0.2895,-0.2879,-0.2876,-0.2888,-0.2877,-0.2869,-0.2893,-0.2868,-0.287,-0.2906,-0.2913,-0.2918,-0.2918,-0.2845,0,0,0,0,0,-0.2809,-0.2826,-0.2858,-0.2876,-0.289,-0.2899,-0.2908,-0.291,-0.2914,-0.2911,-0.2904,-0.2895,-0.2898,-0.2898,-0.2897,-0.2915,-0.2894,-0.2926,-0.2931,-0.2936,-0.2936,-0.2928,-0.2932,-0.2884,-0.2884,-0.2884,0,0,-0.2804,-0.2826,-0.2834,-0.2874,-0.2884,-0.2914,-0.29,-0.2922,-0.294,-0.2911,-0.2923,-0.2915,-0.2906,-0.2922,-0.2927,-0.2914,-0.2938,-0.2938,-0.2942,-0.2939,-0.293,-0.2935,-0.2939,-0.2885,-0.2885,-0.2885,0,0,-0.2811,-0.2829,-0.2848,-0.2875,-0.2907,-0.2921,-0.2931,-0.2953,-0.2955,-0.2974,-0.2955,-0.2958,-0.2963,-0.2962,-0.2961,-0.2996,-0.2967,-0.2996,-0.3024,-0.3017,-0.3021,-0.3024,-0.3002,-0.3003,-0.2999,-0.2999,-0.2999,0,-0.2802,-0.2835,-0.2858,-0.289,-0.2912,-0.2928,-0.2956,-0.2973,-0.2991,-0.2998,-0.2982,-0.2988,-0.2982,-0.3002,-0.3012,-0.3009,-0.2992,-0.3003,-0.3024,-0.3027,-0.3029,-0.3006,-0.3006,-0.3002,-0.3001,-0.3001,-0.3001,0,-0.2826,-0.2856,-0.2871,-0.2916,-0.2946,-0.2973,-0.301,-0.303,-0.3033,-0.3044,-0.3059,-0.305,-0.3049,-0.3054,-0.3045,-0.3064,-0.3042,-0.3033,-0.3009,-0.3037,-0.3011,-0.301,-0.3006,-0.3005,-0.3004,-0.3003,0,0,-0.2786,-0.2871,-0.2872,-0.2901,-0.2961,-0.2987,-0.3032,-0.3073,-0.3094,-0.3104,-0.3123,-0.313,-0.3116,-0.3114,-0.3103,-0.31,-0.3104,-0.3076,-0.3074,-0.3054,-0.3075,-0.3001,-0.2993,-0.3098,-0.3098,-0.3098,-0.3049,0,-0.2789,-0.285,-0.2894,-0.2946,-0.2981,-0.3026,-0.3069,-0.3109,-0.313,-0.3156,-0.3153,-0.3162,-0.3143,-0.3139,-0.3138,-0.312,-0.3104,-0.3117,-0.305,-0.3047,-0.2979,-0.299,-0.2882,-0.2824,-0.3048,-0.3048,-0.3048,0,-0.2783,-0.2832,-0.2885,-0.2969,-0.2988,-0.3022,-0.3085,-0.3126,-0.3176,-0.3192,-0.3204,-0.3201,-0.3209,-0.3179,-0.3154,-0.3163,-0.3119,-0.3096,-0.3093,-0.3002,-0.2971,-0.2832,-0.2813,-0.2794,-0.3046,-0.3046,-0.3046,0,-0.2728,-0.2816,-0.2855,-0.2884,-0.2986,-0.3012,-0.3058,-0.3123,-0.3152,-0.3203,-0.3216,-0.3234,-0.322,-0.3198,-0.3147,-0.3154,-0.3103,-0.3105,-0.299,-0.2984,-0.2867,-0.285,-0.2819,-0.3066,-0.3066,-0.3066,-0.3066,0,-0.2706,-0.2733,-0.2831,-0.2854,-0.2897,-0.2982,-0.3022,-0.3074,-0.3141,-0.3167,-0.3214,-0.3221,-0.322,-0.3193,-0.3158,-0.3065,-0.3105,-0.299,-0.2967,-0.2882,-0.2868,-0.2823,-0.2841,-0.3064,-0.3064,-0.3065,-0.3065,0,-0.2623,-0.2696,-0.2739,-0.2842,-0.2869,-0.2891,-0.2982,-0.3011,-0.3091,-0.3124,-0.3136,-0.3196,-0.3168,-0.3145,-0.31,-0.3049,-0.2931,-0.2936,-0.2828,-0.2793,-0.2679,-0.2703,-0.2615,-0.2539,-0.282,-0.2818,-0.2817,0,-0.2583,-0.2599,-0.2691,-0.271,-0.2748,-0.2802,-0.2838,-0.2953,-0.299,-0.3095,-0.3099,-0.3107,-0.308,-0.3001,-0.2927,-0.2841,-0.2822,-0.2685,-0.2679,-0.2652,-0.2663,-0.2666,-0.2609,-0.2545,-0.2541,-0.2538,-0.2536,0,-0.2486,-0.2513,-0.2548,-0.2593,-0.263,-0.2673,-0.2739,-0.2769,-0.2899,-0.2933,-0.2969,-0.2963,-0.2918,-0.2797,-0.2699,-0.2636,-0.2622,-0.2616,-0.2617,-0.2465,-0.2437,-0.2359,-0.2601,-0.2507,-0.251,-0.2512,-0.2514,-0.2515,-0.2379,-0.2376,-0.242,-0.2444,-0.2489,-0.2512,-0.2492,-0.2586,-0.2618,-0.2648,-0.276,-0.2724,-0.2694,-0.2549,-0.2487,-0.2351,-0.24,-0.2287,-0.2324,-0.2334,-0.2243,-0.2417,-0.2283,-0.2284,-0.2285,-0.2287,-0.2288,0,-0.2238,-0.2251,-0.227,-0.2295,-0.2273,-0.235,-0.2393,-0.2349,-0.2327,-0.243,-0.2429,-0.2443,-0.232,-0.2307,-0.2193,-0.2095,-0.2042,-0.205,-0.2043,-0.2001,-0.2169,-0.2139,-0.1931,-0.1931,-0.1931,-0.1931,-0.1931,-0.1932,-0.2161,-0.2127,-0.2144,-0.2061,-0.207,-0.1984,-0.1964,-0.1934,-0.197,-0.1966,-0.2028,-0.2128,-0.2139,-0.2229,-0.2087,-0.1985,-0.193,-0.1861,-0.1887,-0.2039,-0.2065,-0.209,-0.2066,-0.1846,-0.1846,-0.164,-0.1638,-0.1637]},{"header":{"parameterUnit":"m.s-1","parameterCategory":2,"la1":30.2991,"la2":30.254,"lo1":-89.0895,"lo2":-89.0444,"dy":0.0017,"dx":0.0017,"nx":28,"ny":28,"refTime":"2023-11-02T09:00:00:Z","depth":"0","parameterNumber":3,"parameterNumberName":"V-component_of_CURRENTS"},"data":[0,0,0,0,0,0,0,0,0,0,0,0,0,0,0,0,0,0,0,0,0,0,0,0,0,0,0,0,0,0,0,0,0,0,0,0,0,0,0,0,0,0,0,0,0,0,0,0,0,0,0,0,0,0,0,0,0,0,-0.035,-0.0349,0,-0.0259,-0.0258,-0.0257,-0.0195,-0.0195,-0.0195,-0.0194,-0.0069,-0.0066,-0.0063,0,0,0,0,0,0,0,0,0,0,0,0,0,-0.0418,-0.0417,-0.035,-0.0349,-0.0348,-0.0259,-0.0258,-0.0257,-0.0195,-0.0195,-0.0195,-0.0194,-0.007,-0.0066,-0.0063,0,0,0,0,0,0,0,0,0,0,0,0,0,-0.0363,-0.0417,-0.035,-0.0307,-0.0303,-0.026,-0.0258,-0.0256,-0.0196,-0.0195,-0.0194,-0.0194,-0.0071,-0.0067,-0.0062,-0.0045,0,0,-0.0048,-0.0046,0,0,0,0,0,0,0,0,-0.0367,-0.0361,-0.0315,-0.031,-0.0305,-0.0239,-0.0236,-0.0184,-0.0196,-0.0235,-0.0194,-0.0194,-0.0124,-0.0115,-0.0098,-0.0039,-0.0034,-0.0048,-0.0045,-0.0043,-0.0042,0,0,0,0,0,0,0,-0.037,-0.0364,-0.0313,-0.0314,-0.0308,-0.0275,-0.0267,-0.0226,-0.0182,-0.0232,-0.0227,-0.0219,-0.012,-0.0102,-0.0094,-0.0032,-0.0048,-0.0044,-0.0041,-0.004,0.0054,0.0054,0,0,0,0,0,0,-0.0387,-0.0368,-0.0316,-0.031,-0.0336,-0.0275,-0.0266,-0.026,-0.0183,-0.0171,-0.022,-0.0216,-0.011,-0.01,-0.009,-0.0065,-0.0043,-0.0039,-0.0037,0.0054,0.0054,0.0054,0,0,0,0,0,0,-0.0389,-0.0383,-0.0319,-0.0338,-0.0327,-0.0275,-0.0268,-0.0258,-0.024,-0.0174,-0.0162,-0.0212,-0.011,-0.0096,-0.0056,-0.006,-0.0037,-0.0033,0.0054,0.0054,0.0054,-0.0016,0,0,0,0,0,0,-0.0391,-0.0385,-0.0389,-0.0339,-0.0327,-0.0303,-0.0268,-0.0257,-0.0236,-0.0231,-0.0163,-0.0151,-0.0108,-0.0063,-0.0051,-0.0053,-0.0029,0.0055,0.0054,0.0054,-0.0014,-0.0019,-0.0023,0,0,0,0,0,-0.0394,-0.0404,-0.039,-0.0383,-0.0334,-0.0304,-0.0295,-0.0254,-0.0237,-0.0234,-0.0186,-0.0153,-0.0057,-0.0059,-0.0046,-0.0047,0.0055,0.0054,0.0054,-0.0011,-0.0018,-0.0023,0,0,0,0,0,0,-0.0435,-0.0398,-0.038,-0.0378,-0.0348,-0.0294,-0.0289,-0.0261,-0.0221,-0.0216,-0.0153,-0.0138,-0.0105,-0.0067,-0.0071,-0.0021,0.0003,0.0005,-0.0051,-0.0057,-0.0061,-0.0074,-0.0026,0,0,0,0,0,-0.0448,-0.0447,-0.0402,-0.0402,-0.039,-0.0341,-0.0325,-0.0298,-0.0255,-0.0237,-0.0189,-0.0139,-0.0097,-0.0071,-0.0029,-0.0001,0.0046,0.0007,0.0002,-0.0003,-0.0004,0.0059,0.0059,0.0052,0.0052,0.0052,0,0,-0.0463,-0.0444,-0.0442,-0.0411,-0.0384,-0.0376,-0.033,-0.0312,-0.0302,-0.023,-0.0203,-0.0155,-0.0094,-0.0062,-0.0044,-0.003,0.0024,-0.0003,-0.0008,-0.0006,0.0058,0.0059,0.006,0.0052,0.0052,0.0052,0,0,-0.0501,-0.0477,-0.0492,-0.0471,-0.044,-0.0407,-0.0406,-0.0356,-0.033,-0.0299,-0.0245,-0.02,-0.0138,-0.0091,-0.006,-0.0066,-0.0006,-0.0057,-0.0087,-0.0027,-0.0025,-0.0024,0.0036,0.0044,-0.0057,-0.0057,-0.0057,0,-0.0525,-0.0533,-0.0491,-0.0499,-0.0488,-0.0427,-0.0438,-0.0402,-0.0345,-0.0321,-0.0303,-0.02,-0.0151,-0.0099,-0.0103,-0.0077,-0.0034,-0.0072,-0.0033,-0.0031,-0.0028,0.0034,0.0043,-0.006,-0.006,-0.006,-0.0059,0,-0.0572,-0.0577,-0.0584,-0.0573,-0.0554,-0.0554,-0.05,-0.0476,-0.0437,-0.0392,-0.0335,-0.0261,-0.0198,-0.0177,-0.0141,-0.0097,-0.007,-0.005,-0.0021,-0.0031,0.0034,0.0045,-0.0065,-0.0064,-0.0063,-0.0062,0,0,-0.0625,-0.0622,-0.0624,-0.0634,-0.0595,-0.0586,-0.0564,-0.0523,-0.0502,-0.0438,-0.0401,-0.0326,-0.0274,-0.0236,-0.0177,-0.0124,-0.0067,-0.0086,-0.0081,-0.0031,0.0069,0.0121,0.0139,-0.0041,-0.004,-0.0039,0.0106,0,-0.0677,-0.0723,-0.0693,-0.072,-0.0737,-0.0673,-0.0656,-0.0605,-0.0546,-0.0492,-0.04,-0.0347,-0.0299,-0.0268,-0.0206,-0.0096,-0.0042,-0.0108,0.0076,0.0081,0.0126,0.0152,0.0189,0.0323,0.0117,0.0119,0.012,0,-0.0732,-0.0756,-0.0803,-0.0799,-0.0797,-0.0795,-0.0749,-0.0725,-0.0626,-0.0575,-0.0494,-0.0416,-0.0318,-0.0285,-0.0103,-0.0147,-0.0052,0.003,0.0038,0.0119,0.0154,0.0302,0.0352,0.0501,0.0137,0.0136,0.0135,0,-0.0802,-0.0828,-0.0872,-0.0873,-0.0856,-0.0854,-0.0835,-0.0755,-0.0727,-0.0627,-0.0585,-0.0455,-0.0383,-0.0247,-0.0071,-0.0088,0.0133,0.0135,0.0272,0.0277,0.0362,0.0372,0.0576,0.0249,0.0249,0.0249,0.0248,0,-0.0872,-0.0903,-0.0913,-0.0937,-0.0973,-0.0928,-0.0931,-0.0883,-0.0804,-0.0762,-0.0638,-0.0564,-0.0373,-0.0218,-0.0072,0.0151,0.014,0.0279,0.0323,0.0339,0.0345,0.0521,0.0571,0.0254,0.0253,0.0252,0.0251,0,-0.0939,-0.0948,-0.1,-0.1008,-0.1011,-0.1037,-0.101,-0.1002,-0.0914,-0.0851,-0.0824,-0.0636,-0.0425,-0.0218,0.0024,0.0154,0.0457,0.0426,0.0433,0.0474,0.0724,0.0767,0.1015,0.1102,0.0598,0.0601,0.0603,0,-0.0981,-0.1016,-0.1062,-0.1098,-0.1106,-0.113,-0.1139,-0.1071,-0.1047,-0.0885,-0.0855,-0.0643,-0.0466,-0.0075,0.0191,0.0475,0.0575,0.0655,0.0626,0.0761,0.0842,0.087,0.0926,0.0714,0.0717,0.0719,0.0721,0,-0.1047,-0.1062,-0.1105,-0.1185,-0.122,-0.1251,-0.1251,-0.1244,-0.1141,-0.1051,-0.0885,-0.0729,-0.0335,0.0028,0.0396,0.0554,0.0773,0.0707,0.0857,0.0963,0.1,0.1096,0.0591,0.074,0.0738,0.0737,0.0736,0.0735,-0.1083,-0.1138,-0.1194,-0.1264,-0.1312,-0.1348,-0.1354,-0.1313,-0.125,-0.108,-0.0921,-0.064,-0.0116,0.0423,0.0619,0.1012,0.0952,0.1107,0.1153,0.1173,0.1248,0.0783,0.097,0.097,0.0969,0.0969,0.0968,0,-0.1128,-0.1187,-0.1265,-0.1344,-0.1401,-0.1403,-0.1404,-0.1366,-0.1272,-0.1077,-0.0873,-0.0292,0.0225,0.0687,0.1264,0.1457,0.1482,0.1534,0.1585,0.1624,0.1235,0.1231,0.1472,0.1472,0.1471,0.1471,0.1471,0.1471,-0.1153,-0.1241,-0.1287,-0.1393,-0.1441,-0.147,-0.146,-0.1369,-0.1219,-0.0877,-0.0544,-0.0274,0.0402,0.1345,0.1855,0.1879,0.203,0.2001,0.2086,0.1813,0.1776,0.1741,0.1752,0.2098,0.2098,0.2461,0.2465,0.2467]}],[{"header":{"parameterUnit":"m.s-1","parameterCategory":2,"la1":30.2991,"la2":30.254,"lo1":-89.0895,"lo2":-89.0444,"dy":0.0017,"dx":0.0017,"nx":28,"ny":28,"refTime":"2023-11-02T09:00:00:Z","depth":"2","parameterNumber":2,"parameterNumberName":"U-component_of_CURRENTS"},"data":[0,0,0,0,0,0,0,0,0,0,0,0,0,0,0,0,0,0,0,0,0,0,0,0,0,0,0,0,0,0,0,0,0,0,0,0,0,0,0,0,0,0,0,0,0,0,0,0,0,0,0,0,0,0,0,0,0,0,-0.2543,-0.2543,0,-0.2566,-0.2566,-0.2566,-0.2544,-0.2544,-0.2543,-0.2543,-0.2538,-0.2539,-0.2539,0,0,0,0,0,0,0,0,0,0,0,0,0,-0.2471,-0.2472,-0.2543,-0.2543,-0.2544,-0.2566,-0.2566,-0.2566,-0.2544,-0.2544,-0.2543,-0.2542,-0.2538,-0.2539,-0.2539,0,0,0,0,0,0,0,0,0,0,0,0,0,-0.2495,-0.2472,-0.2542,-0.2538,-0.2538,-0.2566,-0.2566,-0.2566,-0.2545,-0.2544,-0.2543,-0.2542,-0.2538,-0.2539,-0.2539,-0.256,0,0,-0.2541,-0.2541,0,0,0,0,0,0,0,0,-0.2494,-0.2498,-0.2538,-0.2539,-0.2539,-0.2554,-0.2539,-0.2564,-0.2545,-0.2539,-0.2543,-0.2542,-0.2544,-0.2544,-0.2546,-0.256,-0.2559,-0.2541,-0.2542,-0.2542,-0.2542,0,0,0,0,0,0,0,-0.2492,-0.2497,-0.2548,-0.2539,-0.2539,-0.2533,-0.2535,-0.2544,-0.2542,-0.2539,-0.2538,-0.2547,-0.2543,-0.2545,-0.2546,-0.2559,-0.2541,-0.2542,-0.2542,-0.2542,-0.2586,-0.2586,0,0,0,0,0,0,-0.2498,-0.2495,-0.2548,-0.2549,-0.2518,-0.2535,-0.2537,-0.2547,-0.2543,-0.2543,-0.2547,-0.2546,-0.2545,-0.2545,-0.2545,-0.2579,-0.2542,-0.2542,-0.2543,-0.2585,-0.2586,-0.2587,0,0,0,0,0,0,-0.2497,-0.2503,-0.2547,-0.2525,-0.2531,-0.2537,-0.2549,-0.2548,-0.2554,-0.255,-0.2549,-0.2554,-0.2544,-0.2545,-0.2556,-0.2578,-0.2543,-0.2543,-0.2584,-0.2585,-0.2586,-0.264,0,0,0,0,0,0,-0.2494,-0.2502,-0.251,-0.2526,-0.2532,-0.2572,-0.255,-0.255,-0.2562,-0.256,-0.2556,-0.2554,-0.2543,-0.2556,-0.2557,-0.2578,-0.2544,-0.2583,-0.2584,-0.2586,-0.2637,-0.2642,-0.2647,0,0,0,0,0,-0.2492,-0.2509,-0.2511,-0.2517,-0.2544,-0.2573,-0.2576,-0.2575,-0.2563,-0.2574,-0.2566,-0.2554,-0.2566,-0.2557,-0.2558,-0.258,-0.2582,-0.2584,-0.2586,-0.2635,-0.2641,-0.2647,0,0,0,0,0,0,-0.2482,-0.251,-0.2511,-0.2536,-0.2557,-0.2571,-0.2581,-0.2582,-0.2585,-0.258,-0.2567,-0.2566,-0.2584,-0.2575,-0.2566,-0.2596,-0.2571,-0.2573,-0.2608,-0.2614,-0.2619,-0.2618,-0.2544,0,0,0,0,0,-0.2486,-0.2503,-0.2531,-0.2549,-0.2562,-0.2572,-0.2583,-0.2587,-0.2594,-0.2595,-0.2592,-0.2589,-0.2594,-0.2598,-0.26,-0.262,-0.2601,-0.2633,-0.2639,-0.2643,-0.2643,-0.2634,-0.2638,-0.2592,-0.2592,-0.2592,0,0,-0.2485,-0.2504,-0.2512,-0.2547,-0.2559,-0.2587,-0.2576,-0.26,-0.2619,-0.2595,-0.2614,-0.2609,-0.2603,-0.2623,-0.263,-0.2618,-0.2647,-0.2645,-0.2649,-0.2646,-0.2636,-0.264,-0.2644,-0.2594,-0.2593,-0.2593,0,0,-0.2495,-0.2512,-0.253,-0.2555,-0.2587,-0.26,-0.2611,-0.2634,-0.2639,-0.2663,-0.2647,-0.2654,-0.2665,-0.2663,-0.2664,-0.27,-0.2675,-0.2703,-0.2731,-0.2723,-0.2726,-0.2729,-0.2713,-0.2714,-0.2706,-0.2706,-0.2706,0,-0.2491,-0.252,-0.254,-0.257,-0.2591,-0.2608,-0.2637,-0.2654,-0.2676,-0.2684,-0.2675,-0.2687,-0.2684,-0.2702,-0.2714,-0.2712,-0.2699,-0.2709,-0.2729,-0.2732,-0.2734,-0.2717,-0.2717,-0.2709,-0.2709,-0.2708,-0.2708,0,-0.2516,-0.2543,-0.2559,-0.26,-0.2629,-0.2656,-0.269,-0.2713,-0.2721,-0.2732,-0.2753,-0.2747,-0.275,-0.2756,-0.2748,-0.2766,-0.2749,-0.2737,-0.2713,-0.2742,-0.2722,-0.2721,-0.2713,-0.2712,-0.2711,-0.271,0,0,-0.2486,-0.256,-0.2563,-0.2589,-0.2646,-0.267,-0.2715,-0.2753,-0.2775,-0.2792,-0.2813,-0.2823,-0.2813,-0.2812,-0.2803,-0.28,-0.2806,-0.2779,-0.2778,-0.2763,-0.2783,-0.2709,-0.2701,-0.2798,-0.2799,-0.2799,-0.2764,0,-0.2493,-0.2548,-0.2587,-0.2637,-0.2669,-0.271,-0.2751,-0.279,-0.2813,-0.2841,-0.2841,-0.2855,-0.2837,-0.2839,-0.2836,-0.282,-0.2807,-0.2816,-0.2757,-0.2756,-0.2686,-0.2699,-0.2504,-0.2451,-0.2763,-0.2763,-0.2763,0,-0.2492,-0.2535,-0.2585,-0.266,-0.2677,-0.2711,-0.2771,-0.281,-0.286,-0.2878,-0.2893,-0.2894,-0.2904,-0.2877,-0.2854,-0.2862,-0.2824,-0.2802,-0.28,-0.271,-0.268,-0.2473,-0.2438,-0.2762,-0.2762,-0.2762,-0.2762,0,-0.2446,-0.2525,-0.2562,-0.2589,-0.268,-0.2707,-0.275,-0.2811,-0.2839,-0.2893,-0.2909,-0.2927,-0.292,-0.2899,-0.2852,-0.2858,-0.2812,-0.2812,-0.2705,-0.2699,-0.251,-0.2487,-0.2777,-0.2777,-0.2777,-0.2778,-0.2778,0,-0.243,-0.2456,-0.2543,-0.2565,-0.2607,-0.2683,-0.2723,-0.2774,-0.2838,-0.2863,-0.2911,-0.2918,-0.2923,-0.2898,-0.2864,-0.2777,-0.2816,-0.2706,-0.2684,-0.2523,-0.2503,-0.2752,-0.275,-0.2776,-0.2776,-0.2777,-0.2777,0,-0.236,-0.2424,-0.2464,-0.2557,-0.2584,-0.2606,-0.2691,-0.2717,-0.2796,-0.2829,-0.2844,-0.2901,-0.2877,-0.2859,-0.2817,-0.2767,-0.271,-0.266,-0.2469,-0.2425,-0.2605,-0.2606,-0.2558,-0.2555,-0.2553,-0.2551,-0.2549,0,-0.2326,-0.2341,-0.2425,-0.2441,-0.2477,-0.2529,-0.2561,-0.2669,-0.27,-0.2802,-0.2805,-0.2819,-0.2789,-0.2716,-0.264,-0.2558,-0.2622,-0.2328,-0.2305,-0.2598,-0.2582,-0.2587,-0.2591,-0.2075,-0.2069,-0.2065,-0.2061,0,-0.2242,-0.2267,-0.2298,-0.2337,-0.237,-0.2407,-0.2467,-0.2491,-0.2611,-0.2641,-0.267,-0.2661,-0.262,-0.2454,-0.2364,-0.2292,-0.2338,-0.2235,-0.2572,-0.2169,-0.2141,-0.2127,-0.2146,-0.2022,-0.2026,-0.2028,-0.2031,-0.2032,-0.2149,-0.2145,-0.2181,-0.2201,-0.2241,-0.2254,-0.2229,-0.2309,-0.2329,-0.2346,-0.2452,-0.2374,-0.2368,-0.2135,-0.2025,-0.1938,-0.2097,-0.1996,-0.201,-0.2029,-0.1987,-0.1957,-0.1795,-0.1797,-0.18,-0.1802,-0.1803,0,-0.2022,-0.203,-0.2043,-0.2058,-0.2033,-0.2107,-0.2134,-0.2079,-0.2043,-0.2108,-0.2097,-0.1887,-0.1789,-0.1784,-0.1597,-0.1565,-0.1547,-0.1492,-0.1469,-0.1509,-0.1545,-0.148,-0.1152,-0.115,-0.1148,-0.1147,0,0,-0.1952,-0.1913,-0.1922,-0.1834,-0.1841,-0.1752,-0.1726,-0.1676,-0.1679,-0.1594,-0.1565,-0.1706,-0.1748,-0.1461,-0.1388,-0.1242,-0.1363,-0.1179,-0.1701,-0.1715,-0.1748,-0.1834,-0.1778,0,0,0,0,0]},{"header":{"parameterUnit":"m.s-1","parameterCategory":2,"la1":30.2991,"la2":30.254,"lo1":-89.0895,"lo2":-89.0444,"dy":0.0017,"dx":0.0017,"nx":28,"ny":28,"refTime":"2023-11-02T09:00:00:Z","depth":"2","parameterNumber":3,"parameterNumberName":"V-component_of_CURRENTS"},"data":[0,0,0,0,0,0,0,0,0,0,0,0,0,0,0,0,0,0,0,0,0,0,0,0,0,0,0,0,0,0,0,0,0,0,0,0,0,0,0,0,0,0,0,0,0,0,0,0,0,0,0,0,0,0,0,0,0,0,-0.0293,-0.0292,0,-0.021,-0.0209,-0.0208,-0.0152,-0.0152,-0.0151,-0.0151,-0.0037,-0.0034,-0.0031,0,0,0,0,0,0,0,0,0,0,0,0,0,-0.0351,-0.035,-0.0293,-0.0292,-0.0291,-0.0211,-0.0209,-0.0208,-0.0152,-0.0152,-0.0151,-0.0151,-0.0038,-0.0034,-0.0031,0,0,0,0,0,0,0,0,0,0,0,0,0,-0.0302,-0.035,-0.0293,-0.0254,-0.025,-0.0211,-0.0209,-0.0208,-0.0152,-0.0152,-0.0151,-0.0151,-0.0039,-0.0035,-0.0031,-0.0015,0,0,-0.0018,-0.0016,0,0,0,0,0,0,0,0,-0.0305,-0.03,-0.0261,-0.0257,-0.0252,-0.0192,-0.0188,-0.0142,-0.0152,-0.0188,-0.0151,-0.0151,-0.0087,-0.0079,-0.0063,-0.0009,-0.0005,-0.0018,-0.0015,-0.0013,-0.0012,0,0,0,0,0,0,0,-0.0308,-0.0303,-0.0259,-0.026,-0.0254,-0.0223,-0.0216,-0.0179,-0.014,-0.0185,-0.0181,-0.0174,-0.0084,-0.0067,-0.006,-0.0003,-0.0018,-0.0014,-0.0012,-0.001,0.0076,0.0075,0,0,0,0,0,0,-0.0324,-0.0306,-0.0262,-0.0257,-0.0279,-0.0223,-0.0215,-0.0211,-0.0141,-0.013,-0.0174,-0.0171,-0.0075,-0.0065,-0.0056,-0.003,-0.0014,-0.001,-0.0007,0.0076,0.0075,0.0075,0,0,0,0,0,0,-0.0325,-0.0321,-0.0265,-0.028,-0.0271,-0.0223,-0.0218,-0.0209,-0.0193,-0.0133,-0.0121,-0.0167,-0.0074,-0.0062,-0.0024,-0.0025,-0.0008,-0.0004,0.0076,0.0076,0.0075,0.002,0,0,0,0,0,0,-0.0328,-0.0322,-0.0327,-0.0282,-0.0271,-0.025,-0.0219,-0.0208,-0.019,-0.0185,-0.0123,-0.0112,-0.0073,-0.0031,-0.002,-0.0019,-0.0001,0.0076,0.0076,0.0075,0.0022,0.0018,0.0014,0,0,0,0,0,-0.033,-0.0341,-0.0328,-0.0322,-0.0279,-0.0251,-0.0243,-0.0205,-0.019,-0.0188,-0.0144,-0.0114,-0.0026,-0.0028,-0.0015,-0.0013,0.0076,0.0076,0.0075,0.0024,0.0019,0.0014,0,0,0,0,0,0,-0.0368,-0.0335,-0.032,-0.032,-0.0291,-0.0242,-0.0238,-0.0212,-0.0175,-0.0171,-0.0114,-0.0099,-0.0068,-0.0035,-0.0039,0.001,0.0029,0.0031,-0.0014,-0.0019,-0.0023,-0.0034,0.0003,0,0,0,0,0,-0.0381,-0.038,-0.034,-0.0341,-0.033,-0.0286,-0.0271,-0.0246,-0.0207,-0.0191,-0.0146,-0.01,-0.0061,-0.0036,0.0001,0.0029,0.0071,0.0038,0.0034,0.003,0.0029,0.0089,0.009,0.0074,0.0074,0.0074,0,0,-0.0396,-0.0378,-0.0377,-0.035,-0.0325,-0.0316,-0.0275,-0.0259,-0.0247,-0.0184,-0.0157,-0.0114,-0.0058,-0.0026,-0.0009,0.0003,0.0056,0.003,0.0026,0.0027,0.0088,0.009,0.0092,0.0073,0.0074,0.0074,0,0,-0.043,-0.0411,-0.0423,-0.0403,-0.0374,-0.0344,-0.0343,-0.0297,-0.0273,-0.0243,-0.0194,-0.0151,-0.0095,-0.0049,-0.0019,-0.0022,0.0031,-0.0015,-0.0038,0.002,0.0022,0.0024,0.0077,0.0085,-0.0013,-0.0013,-0.0013,0,-0.0452,-0.0458,-0.0421,-0.0426,-0.0416,-0.0362,-0.0369,-0.0335,-0.0282,-0.026,-0.0245,-0.015,-0.0104,-0.0051,-0.0053,-0.003,0.0008,-0.0025,0.0015,0.0018,0.0022,0.0076,0.0084,-0.0016,-0.0016,-0.0015,-0.0015,0,-0.049,-0.0495,-0.05,-0.0487,-0.0469,-0.0468,-0.0419,-0.0396,-0.0361,-0.0319,-0.0265,-0.0197,-0.0139,-0.0118,-0.0085,-0.0039,-0.0018,0.0,0.0026,0.002,0.0077,0.0087,-0.002,-0.0019,-0.0018,-0.0017,0,0,-0.0541,-0.0532,-0.0534,-0.0542,-0.0504,-0.0497,-0.0473,-0.0433,-0.0415,-0.0354,-0.0319,-0.0245,-0.02,-0.0165,-0.011,-0.0058,-0.0002,-0.0026,-0.0022,0.0024,0.0124,0.0163,0.0178,0.0023,0.0024,0.0026,0.0154,0,-0.0585,-0.062,-0.0592,-0.0613,-0.0626,-0.0569,-0.055,-0.0503,-0.0451,-0.0401,-0.0314,-0.0266,-0.0219,-0.0193,-0.013,-0.0031,0.0023,-0.0039,0.0126,0.0131,0.0164,0.0191,0.0157,0.0271,0.0165,0.0167,0.0168,0,-0.0632,-0.065,-0.0689,-0.0683,-0.0681,-0.0678,-0.0639,-0.0615,-0.0524,-0.0478,-0.0402,-0.033,-0.0234,-0.0204,-0.0032,-0.0074,0.0014,0.009,0.0097,0.016,0.0189,0.0261,0.0294,0.0186,0.0184,0.0183,0.0182,0,-0.0697,-0.0714,-0.0753,-0.0752,-0.0733,-0.0733,-0.0716,-0.0644,-0.062,-0.0527,-0.0492,-0.0366,-0.03,-0.0171,-0.0007,-0.0021,0.0183,0.0186,0.0306,0.031,0.0328,0.0331,0.0297,0.0297,0.0297,0.0297,0.0296,0,-0.0758,-0.0785,-0.0792,-0.0812,-0.0847,-0.0804,-0.0811,-0.0767,-0.0696,-0.0662,-0.0543,-0.0478,-0.0291,-0.0148,-0.0011,0.0193,0.0187,0.0313,0.0351,0.0307,0.0307,0.0267,0.0262,0.0301,0.03,0.0299,0.0299,0,-0.0822,-0.0827,-0.0873,-0.0878,-0.0883,-0.091,-0.0889,-0.0885,-0.0806,-0.0754,-0.0728,-0.0553,-0.0358,-0.016,0.0069,0.019,0.0373,0.044,0.0376,0.0405,0.0459,0.0449,0.0586,0.0589,0.0591,0.0593,0.0594,0,-0.0861,-0.0891,-0.0934,-0.0969,-0.0977,-0.1002,-0.1014,-0.0953,-0.0934,-0.0793,-0.0768,-0.0572,-0.0412,-0.005,0.0195,0.0458,0.0445,0.0564,0.0534,0.0468,0.0492,0.0478,0.0466,0.0536,0.0537,0.0538,0.0538,0,-0.0923,-0.0938,-0.0977,-0.1054,-0.109,-0.1122,-0.1126,-0.1122,-0.103,-0.0954,-0.0808,-0.0667,-0.0312,-0.0008,0.033,0.0468,0.0521,0.0588,0.0558,0.0463,0.043,0.045,0.0438,0.0545,0.0544,0.0544,0.0543,0.0543,-0.0961,-0.1012,-0.1065,-0.1134,-0.1182,-0.1218,-0.1226,-0.1192,-0.1139,-0.0989,-0.0849,-0.0603,-0.0308,0.0182,0.042,0.0626,0.0616,0.066,0.0654,0.0648,0.0614,0.0587,0.0724,0.0725,0.0725,0.0725,0.0725,0,-0.1008,-0.1062,-0.1136,-0.1213,-0.127,-0.1275,-0.1279,-0.1243,-0.1162,-0.0991,-0.0813,-0.0477,-0.0125,0.0169,0.0513,0.072,0.0682,0.0734,0.0652,0.0644,0.0638,0.06,0.0709,0.0709,0.071,0.071,0,0,-0.1033,-0.1115,-0.1158,-0.1263,-0.1312,-0.1345,-0.1337,-0.125,-0.1116,-0.0928,-0.0737,-0.0476,-0.0107,0.0134,0.0395,0.057,0.0545,0.057,0.0563,0.0428,0.0419,0.0577,0.0508,0,0,0,0,0]}],[{"header":{"parameterUnit":"m.s-1","parameterCategory":2,"la1":30.2991,"la2":30.254,"lo1":-89.0895,"lo2":-89.0444,"dy":0.0017,"dx":0.0017,"nx":28,"ny":28,"refTime":"2023-11-02T09:00:00:Z","depth":"4","parameterNumber":2,"parameterNumberName":"U-component_of_CURRENTS"},"data":[0,0,0,0,0,0,0,0,0,0,0,0,0,0,0,0,0,0,0,0,0,0,0,0,0,0,0,0,0,0,0,0,0,0,0,0,0,0,0,0,0,0,0,0,0,0,0,0,0,0,0,0,0,0,0,0,0,0,-0.1769,-0.1769,0,-0.1832,-0.1833,-0.1833,-0.1874,-0.1874,-0.1875,-0.1875,-0.195,-0.1952,-0.1954,0,0,0,0,0,0,0,0,0,0,0,0,0,-0.1679,-0.1681,-0.1769,-0.177,-0.1771,-0.1832,-0.1833,-0.1834,-0.1874,-0.1874,-0.1875,-0.1875,-0.195,-0.1952,-0.1954,0,0,0,0,0,0,0,0,0,0,0,0,0,-0.1726,-0.1681,-0.1768,-0.18,-0.1803,-0.1832,-0.1833,-0.1834,-0.1874,-0.1874,-0.1875,-0.1876,-0.1949,-0.1952,-0.1954,-0.1956,0,0,-0.1961,-0.1962,0,0,0,0,0,0,0,0,-0.1723,-0.1729,-0.1794,-0.1798,-0.1802,-0.1848,-0.1829,-0.1876,-0.1874,-0.1845,-0.1875,-0.1876,-0.1918,-0.1923,-0.193,-0.1959,-0.1963,-0.1962,-0.1963,-0.1964,-0.1965,0,0,0,0,0,0,0,-0.172,-0.1726,-0.1792,-0.1795,-0.18,-0.181,-0.1817,-0.1838,-0.1875,-0.1847,-0.1851,-0.1861,-0.192,-0.1928,-0.1933,-0.1964,-0.1961,-0.1964,-0.1965,-0.1966,-0.2066,-0.2067,0,0,0,0,0,0,-0.1716,-0.1723,-0.179,-0.1794,-0.1766,-0.1811,-0.1819,-0.1831,-0.1875,-0.1883,-0.1861,-0.1863,-0.1924,-0.193,-0.1935,-0.2014,-0.1964,-0.1966,-0.1968,-0.2064,-0.2066,-0.2067,0,0,0,0,0,0,-0.1714,-0.1721,-0.1787,-0.1762,-0.1771,-0.1812,-0.1825,-0.1831,-0.1872,-0.1886,-0.1893,-0.1898,-0.1924,-0.1932,-0.1981,-0.2014,-0.1967,-0.197,-0.2063,-0.2065,-0.2067,-0.2124,0,0,0,0,0,0,-0.1711,-0.172,-0.1743,-0.1761,-0.1772,-0.1828,-0.1825,-0.1832,-0.1876,-0.1881,-0.192,-0.1925,-0.1925,-0.1977,-0.1983,-0.2017,-0.1971,-0.2061,-0.2064,-0.2066,-0.212,-0.2127,-0.2133,0,0,0,0,0,-0.1708,-0.1731,-0.1743,-0.1752,-0.1797,-0.1829,-0.1836,-0.1865,-0.1878,-0.1903,-0.1928,-0.1926,-0.1995,-0.198,-0.1987,-0.2022,-0.206,-0.2063,-0.2066,-0.2117,-0.2126,-0.2133,0,0,0,0,0,0,-0.1707,-0.1739,-0.1752,-0.1786,-0.1817,-0.1837,-0.1868,-0.1885,-0.1923,-0.1937,-0.1945,-0.1953,-0.2005,-0.2006,-0.1989,-0.2056,-0.2027,-0.2031,-0.2063,-0.2071,-0.2078,-0.2068,-0.1973,0,0,0,0,0,-0.1716,-0.1744,-0.1772,-0.1803,-0.1822,-0.1851,-0.1874,-0.1895,-0.1924,-0.1943,-0.1969,-0.1994,-0.2016,-0.2039,-0.2057,-0.2099,-0.2078,-0.2124,-0.2131,-0.2136,-0.2132,-0.2123,-0.2128,-0.2076,-0.2076,-0.2076,0,0,-0.1726,-0.1747,-0.1764,-0.1806,-0.1832,-0.1866,-0.1867,-0.1913,-0.1947,-0.1944,-0.2008,-0.2022,-0.2031,-0.2075,-0.2099,-0.2086,-0.2143,-0.2139,-0.2144,-0.2137,-0.2127,-0.2132,-0.2136,-0.2078,-0.2078,-0.2077,0,0,-0.1746,-0.1778,-0.1805,-0.1835,-0.1883,-0.19,-0.1921,-0.1963,-0.1992,-0.2046,-0.2049,-0.2081,-0.2128,-0.2133,-0.2141,-0.2194,-0.2175,-0.2211,-0.2241,-0.2234,-0.2238,-0.2241,-0.2229,-0.2231,-0.2216,-0.2216,-0.2217,0,-0.1758,-0.1792,-0.182,-0.1853,-0.1884,-0.1919,-0.1956,-0.1989,-0.2044,-0.2066,-0.2078,-0.2135,-0.2149,-0.2181,-0.2202,-0.2209,-0.22,-0.2212,-0.2241,-0.2244,-0.2246,-0.2233,-0.2234,-0.2219,-0.2219,-0.2219,-0.2219,0,-0.1786,-0.1829,-0.1851,-0.1902,-0.1939,-0.198,-0.2024,-0.207,-0.2109,-0.2133,-0.2188,-0.2203,-0.2231,-0.2246,-0.2245,-0.2273,-0.2261,-0.2248,-0.2219,-0.2254,-0.2239,-0.2239,-0.2224,-0.2223,-0.2222,-0.2221,0,0,-0.1768,-0.1853,-0.1864,-0.1898,-0.197,-0.1999,-0.2064,-0.2117,-0.2156,-0.2208,-0.225,-0.2287,-0.2294,-0.2302,-0.2305,-0.2305,-0.232,-0.2292,-0.2291,-0.2277,-0.2306,-0.2163,-0.2148,-0.2316,-0.2316,-0.2316,-0.2292,0,-0.1783,-0.1847,-0.189,-0.196,-0.1996,-0.2054,-0.2107,-0.2164,-0.221,-0.2262,-0.2282,-0.2322,-0.2316,-0.2336,-0.2337,-0.2329,-0.2322,-0.2328,-0.2277,-0.2275,-0.2139,-0.2144,-0.2317,-0.2292,-0.2292,-0.2292,-0.2292,0,-0.1784,-0.1832,-0.19,-0.1988,-0.201,-0.2062,-0.2145,-0.2197,-0.2268,-0.2305,-0.2343,-0.236,-0.2386,-0.2369,-0.236,-0.2368,-0.2341,-0.2323,-0.2322,-0.2162,-0.213,-0.2247,-0.2291,-0.2291,-0.2291,-0.2291,-0.2291,0,-0.1736,-0.1833,-0.1888,-0.192,-0.2026,-0.2074,-0.2131,-0.221,-0.2249,-0.233,-0.2358,-0.2394,-0.2409,-0.2393,-0.2361,-0.237,-0.2331,-0.2334,-0.2173,-0.2164,-0.2277,-0.2274,-0.2306,-0.2306,-0.2306,-0.2306,-0.2306,0,-0.1712,-0.176,-0.1877,-0.1908,-0.1974,-0.2059,-0.2127,-0.2189,-0.227,-0.2299,-0.2371,-0.2378,-0.2415,-0.2397,-0.2369,-0.2258,-0.2332,-0.2166,-0.214,-0.2304,-0.2304,-0.2277,-0.2274,-0.2305,-0.2305,-0.2306,-0.2306,0,-0.1639,-0.1722,-0.1787,-0.1911,-0.1953,-0.1997,-0.2111,-0.2143,-0.2242,-0.2281,-0.2305,-0.2371,-0.2347,-0.2348,-0.2317,-0.2241,-0.217,-0.2108,-0.228,-0.2266,-0.2013,-0.2014,-0.1936,-0.1931,-0.1926,-0.1923,-0.1919,0,-0.1601,-0.1632,-0.1765,-0.18,-0.186,-0.1944,-0.1987,-0.2109,-0.2136,-0.2243,-0.2236,-0.2265,-0.2283,-0.2115,-0.215,-0.2074,-0.2043,-0.2001,-0.2007,-0.1989,-0.1972,-0.198,-0.1987,-0.1912,-0.1911,-0.1909,-0.1908,0,-0.1518,-0.1578,-0.1629,-0.1702,-0.1763,-0.1816,-0.1893,-0.1899,-0.2019,-0.2134,-0.2095,-0.207,-0.2037,-0.2006,-0.1949,-0.19,-0.2031,-0.1952,-0.1962,-0.1968,-0.1958,-0.1948,-0.196,-0.1892,-0.1895,-0.1896,-0.1897,0,-0.1445,-0.1456,-0.1526,-0.157,-0.1644,-0.1653,-0.1718,-0.1741,-0.1785,-0.1915,-0.1896,-0.1933,-0.2009,-0.1913,-0.1866,-0.1802,-0.1782,-0.1725,-0.1746,-0.1765,-0.1718,-0.1682,-0.1493,0,0,0,0,0,-0.1359,-0.1351,-0.1385,-0.1423,-0.1488,-0.1525,-0.1631,-0.1698,-0.1822,-0.174,-0.1814,-0.1775,-0.1715,-0.1742,-0.1636,-0.1792,-0.179,-0.1663,-0.1737,-0.1803,-0.1822,-0.1782,0,0,0,0,0,0,-0.1299,-0.1325,-0.1331,-0.128,-0.1276,-0.1325,-0.1382,-0.1473,-0.1444,-0.1579,-0.1549,-0.1659,-0.162,-0.173,-0.1592,-0.16,-0.1608,-0.1704,-0.1699,-0.1793,-0.181,-0.1825,-0.179,0,0,0,0,0]},{"header":{"parameterUnit":"m.s-1","parameterCategory":2,"la1":30.2991,"la2":30.254,"lo1":-89.0895,"lo2":-89.0444,"dy":0.0017,"dx":0.0017,"nx":28,"ny":28,"refTime":"2023-11-02T09:00:00:Z","depth":"4","parameterNumber":3,"parameterNumberName":"V-component_of_CURRENTS"},"data":[0,0,0,0,0,0,0,0,0,0,0,0,0,0,0,0,0,0,0,0,0,0,0,0,0,0,0,0,0,0,0,0,0,0,0,0,0,0,0,0,0,0,0,0,0,0,0,0,0,0,0,0,0,0,0,0,0,0,-0.0213,-0.0212,0,-0.0159,-0.0158,-0.0157,-0.0119,-0.0119,-0.0119,-0.0119,-0.0034,-0.0032,-0.003,0,0,0,0,0,0,0,0,0,0,0,0,0,-0.0241,-0.0241,-0.0213,-0.0212,-0.0211,-0.0159,-0.0158,-0.0157,-0.0119,-0.0119,-0.0119,-0.0118,-0.0034,-0.0032,-0.0029,0,0,0,0,0,0,0,0,0,0,0,0,0,-0.0211,-0.0241,-0.0213,-0.0187,-0.0184,-0.0159,-0.0158,-0.0157,-0.0119,-0.0119,-0.0119,-0.0118,-0.0035,-0.0032,-0.0029,-0.0016,0,0,-0.002,-0.0018,0,0,0,0,0,0,0,0,-0.0213,-0.021,-0.0191,-0.0189,-0.0186,-0.0146,-0.0137,-0.0109,-0.0119,-0.0143,-0.0119,-0.0118,-0.0069,-0.0064,-0.0053,-0.0012,-0.0008,-0.0019,-0.0017,-0.0016,-0.0015,0,0,0,0,0,0,0,-0.0215,-0.0212,-0.019,-0.0191,-0.0187,-0.0164,-0.016,-0.0131,-0.0107,-0.0141,-0.0138,-0.0134,-0.0067,-0.0056,-0.0051,-0.0007,-0.0019,-0.0017,-0.0015,-0.0014,0.0051,0.0051,0,0,0,0,0,0,-0.0227,-0.0214,-0.0192,-0.0189,-0.02,-0.0164,-0.0159,-0.0158,-0.0108,-0.01,-0.0134,-0.0132,-0.0061,-0.0054,-0.0047,-0.0024,-0.0016,-0.0013,-0.0011,0.0052,0.0051,0.0051,0,0,0,0,0,0,-0.0227,-0.0225,-0.0194,-0.0201,-0.0195,-0.0164,-0.0163,-0.0157,-0.0148,-0.0104,-0.0095,-0.0131,-0.0061,-0.0052,-0.0024,-0.0021,-0.0012,-0.0009,0.0052,0.0051,0.0051,0.0019,0,0,0,0,0,0,-0.0229,-0.0226,-0.0233,-0.0202,-0.0195,-0.0185,-0.0164,-0.0157,-0.0146,-0.0143,-0.0098,-0.009,-0.006,-0.0029,-0.0021,-0.0017,-0.0007,0.0052,0.0052,0.0051,0.002,0.0018,0.0015,0,0,0,0,0,-0.023,-0.024,-0.0234,-0.0231,-0.0205,-0.0186,-0.0181,-0.0156,-0.0147,-0.0146,-0.0114,-0.0091,-0.0025,-0.0027,-0.0017,-0.0012,0.0052,0.0052,0.0051,0.0021,0.0018,0.0015,0,0,0,0,0,0,-0.0257,-0.0237,-0.0229,-0.0233,-0.0215,-0.018,-0.018,-0.0162,-0.0136,-0.0134,-0.0091,-0.008,-0.0056,-0.0032,-0.0035,0.0005,0.0016,0.0018,-0.001,-0.0012,-0.0015,-0.0023,-0.0004,0,0,0,0,0,-0.0267,-0.0271,-0.0244,-0.0249,-0.0243,-0.0213,-0.0204,-0.0187,-0.0159,-0.0148,-0.0115,-0.0081,-0.005,-0.0031,-0.0003,0.002,0.0052,0.0029,0.0026,0.0024,0.0023,0.0074,0.0077,0.005,0.005,0.005,0,0,-0.028,-0.027,-0.0272,-0.0256,-0.024,-0.0233,-0.0206,-0.0197,-0.0187,-0.0143,-0.0122,-0.009,-0.0047,-0.0021,-0.0008,0.0001,0.0047,0.0024,0.0022,0.0022,0.0074,0.0077,0.008,0.005,0.005,0.005,0,0,-0.0304,-0.0297,-0.0306,-0.0294,-0.0276,-0.0255,-0.0256,-0.0224,-0.0207,-0.0185,-0.0149,-0.0114,-0.0073,-0.0034,-0.001,-0.0009,0.003,-0.0005,-0.0017,0.0033,0.0036,0.0038,0.0078,0.0085,-0.0002,-0.0002,-0.0002,0,-0.0321,-0.0327,-0.0306,-0.0308,-0.0303,-0.0268,-0.0273,-0.0248,-0.0211,-0.0195,-0.0187,-0.0113,-0.0077,-0.0029,-0.0029,-0.0013,0.0016,-0.0009,0.003,0.0034,0.0037,0.0077,0.0085,-0.0004,-0.0003,-0.0003,-0.0003,0,-0.0344,-0.0352,-0.0356,-0.0348,-0.0337,-0.0338,-0.0303,-0.0289,-0.0267,-0.0236,-0.0194,-0.014,-0.0095,-0.0077,-0.0051,-0.0008,0.0004,0.0019,0.0038,0.0038,0.008,0.0089,-0.0006,-0.0005,-0.0005,-0.0005,0,0,-0.0378,-0.0376,-0.0379,-0.0387,-0.0361,-0.0359,-0.034,-0.0312,-0.0302,-0.0255,-0.023,-0.0166,-0.0134,-0.0105,-0.0062,-0.0014,0.0037,0.0008,0.0011,0.0047,0.014,0.0127,0.0135,0.0058,0.0059,0.0061,0.0158,0,-0.0406,-0.0431,-0.0413,-0.0432,-0.0442,-0.0406,-0.0394,-0.0361,-0.0326,-0.0292,-0.022,-0.0185,-0.0144,-0.0126,-0.0068,0.001,0.0058,0.0008,0.0134,0.0138,0.0126,0.0144,0.0065,0.0165,0.0167,0.0169,0.017,0,-0.0433,-0.0448,-0.0478,-0.0483,-0.0483,-0.0486,-0.0466,-0.045,-0.0385,-0.0354,-0.0293,-0.0238,-0.0155,-0.0131,0.0015,-0.002,0.0053,0.0115,0.0121,0.0125,0.0141,0.0166,0.0186,0.0185,0.0183,0.0182,0.0181,0,-0.0474,-0.0492,-0.0524,-0.0526,-0.0521,-0.0528,-0.0523,-0.0475,-0.0462,-0.0395,-0.0374,-0.0266,-0.0216,-0.0105,0.0028,0.0021,0.0184,0.0192,0.0252,0.0252,0.0249,0.0245,0.029,0.0289,0.0289,0.0289,0.0289,0,-0.0507,-0.0534,-0.0554,-0.0571,-0.061,-0.0584,-0.0604,-0.0575,-0.0531,-0.0511,-0.0416,-0.0371,-0.0208,-0.0093,0.0022,0.0167,0.0185,0.0254,0.028,0.0232,0.0225,0.0256,0.025,0.0293,0.0292,0.0291,0.029,0,-0.0542,-0.0555,-0.0599,-0.062,-0.0633,-0.0664,-0.0673,-0.0677,-0.0626,-0.0597,-0.0578,-0.0441,-0.029,-0.0124,0.0067,0.0152,0.0293,0.0337,0.0273,0.0292,0.0327,0.0319,0.041,0.0411,0.0411,0.0411,0.0412,0,-0.056,-0.0587,-0.0648,-0.0686,-0.0703,-0.0742,-0.0764,-0.0733,-0.0725,-0.0635,-0.0617,-0.0472,-0.0366,-0.0095,0.0068,0.0292,0.0318,0.0383,0.0357,0.0326,0.0342,0.0333,0.0325,0.0412,0.0412,0.0412,0.0413,0,-0.0591,-0.062,-0.0658,-0.0742,-0.0789,-0.0832,-0.0853,-0.085,-0.0796,-0.0759,-0.0631,-0.0481,-0.0307,-0.0097,0.008,0.0236,0.0337,0.0387,0.0387,0.0364,0.0329,0.0343,0.0334,0.0414,0.0414,0.0413,0.0413,0,-0.0613,-0.0656,-0.0715,-0.0783,-0.0851,-0.0889,-0.0898,-0.0865,-0.0842,-0.0727,-0.0688,-0.0486,-0.0363,-0.0126,0.0035,0.0191,0.0221,0.0257,0.0264,0.0265,0.0189,0.0122,0.017,0,0,0,0,0,-0.0628,-0.0676,-0.0748,-0.0821,-0.0889,-0.092,-0.0938,-0.0928,-0.0877,-0.0792,-0.0731,-0.0562,-0.0298,-0.018,-0.0025,0.0021,0.023,0.0202,0.0269,0.042,0.0419,0.0354,0,0,0,0,0,0,-0.0639,-0.071,-0.0748,-0.0833,-0.0884,-0.0946,-0.0956,-0.0923,-0.0859,-0.0786,-0.064,-0.0546,-0.0288,-0.0384,-0.0028,0.0019,0.0076,0.0333,0.0335,0.0421,0.042,0.0419,0.0351,0,0,0,0,0]}]]